Regional Weather Roundup
Issued by NWS

Home | Current Version | Previous Version | Text Only | Print | Product List | Glossary On
Versions: 1 2 3 4 5 6 7 8 9 10 11 12 13 14 15 16 17 18 19 20 21 22 23 24 25 26 27 28 29 30 31 32 33 34 35 36 37 38 39 40 41 42 43 44 45 46 47 48 49 50
000
ASUS43 KIND 290009
RWRIN

WEATHER ROUNDUP FOR INDIANA
NATIONAL WEATHER SERVICE INDIANAPOLIS IN
700 PM EST WED JAN 28 2015

NOTE: "FAIR" INDICATES FEW OR NO CLOUDS BELOW 12,000 FEET WITH NO
SIGNIFICANT WEATHER AND/OR OBSTRUCTIONS TO VISIBILITY.

* - STATION DOES NOT REPORT WEATHER SUCH AS PRECIPITATION OR FOG.

+ - STATION NOT QUALITY CONTROLLED BY THE NATIONAL WEATHER SERVICE.
    USE DATA WITH CAUTION...ESPECIALLY DEWPOINT AND RELATIVE
    HUMIDITY OBSERVATIONS.

INZ001>003-010>013-019-020-290100-
NORTHWEST INDIANA

CITY           SKY/WX    TMP DP  RH WIND       PRES   REMARKS
GARY /AIRPORT/ CLOUDY    34  16  47 SE17G29   30.04F WCI  23
KNOX *+        MOCLDY    30   7  37 SE16      30.08F WCI  19
LA PORTE +     PTCLDY    31  21  66 SE12      30.08F WCI  22
6HR MIN TEMP:  31; 6HR MAX TEMP:  33;

MICHIGAN CITY+ MOCLDY    30  14  51 SE10G18   30.06F WCI  21
MONTICELLO +   MOCLDY    32  21  64 SE8       30.09F WCI  25
6HR MIN TEMP:  30; 6HR MAX TEMP:  34;

RENSSELAER +   PTCLDY    34  27  75 SE13      30.06F WCI  25
VALPARAISO     MOCLDY    30  20  66 SE14G21   30.06F WCI  19
6HR MIN TEMP:  30; 6HR MAX TEMP:  32;


$$

LMZ046-743>745-290100-
SOUTHERN LAKE MICHIGAN

STATION/POSITION TIME  TEMP WIND        PRES
                       AIR  DIR/SP/G
                 (UTC) (F)  (DEG/KT/KT) (MB)
MICHIGAN CITY    0000   30  120/ 16/ 23   N/A

$$

INZ004-005-014>016-021>024-290100-
NORTH CENTRAL INDIANA

CITY           SKY/WX    TMP DP  RH WIND       PRES   REMARKS
ELKHART        MOCLDY    27  12  54 SE10      30.12  WCI  17
GOSHEN         MOCLDY    26  16  65 SE14      30.13F WCI  14
6HR MIN TEMP:  26; 6HR MAX TEMP:  30;

LOGANSPORT +   MOCLDY    30  23  74 SE9       30.13F WCI  22
PERU/GRISSOM   MOCLDY    29  21  73 SE10      30.12F WCI  20
6HR MIN TEMP:  28; 6HR MAX TEMP:  32;

ROCHESTER +    MOCLDY    32  21  64 SE10      30.12F WCI  24
SOUTH BEND     FAIR      28  17  63 SE15      30.10F WCI  16
6HR MIN TEMP:  28; 6HR MAX TEMP:  31;

WARSAW +       PTCLDY    27  18  69 SE10      30.13F WCI  17

$$

INZ006>009-017-018-025>027-290100-
NORTHEAST INDIANA

CITY           SKY/WX    TMP DP  RH WIND       PRES   REMARKS
ANGOLA *+      CLEAR     21  14  73 SE8       30.16F WCI  12
AUBURN +       PTCLDY    25  16  68 SE5       30.19F WCI  19
FORT WAYNE     CLOUDY    25  16  68 SE9       30.19F WCI  15
6HR MIN TEMP:  24; 6HR MAX TEMP:  27;

HUNTINGTON +   MOCLDY    26  14  60 SE8       30.17S WCI  18
6HR MIN TEMP:  25; 6HR MAX TEMP:  29;


$$

INZ028-029-035-036-043>045-051>053-290100-
WEST CENTRAL INDIANA

CITY           SKY/WX    TMP DP  RH WIND       PRES   REMARKS
CRAWFORDSVL +  MOCLDY    32  15  50 SE14      30.09F WCI  22
6HR MIN TEMP:  32; 6HR MAX TEMP:  35;

GREENCASTLE +  PTCLDY    32  16  51 SE12      30.12F WCI  23
LAFAYETTE      MOCLDY    33  20  58 SE12      30.09F WCI  24
6HR MIN TEMP:  32; 6HR MAX TEMP:  37;

TERRE HAUTE    CLEAR     35  20  54 SE13      30.10F WCI  26
6HR MIN TEMP:  33; 6HR MAX TEMP:  37;


$$

INZ030>032-037>040-046>048-054>057-064-065-290100-
CENTRAL INDIANA

CITY           SKY/WX    TMP DP  RH WIND       PRES   REMARKS
CP ATTERBURY + PTCLDY    32  19  59 SE9       30.19S WCI  24
INDIANAPOLIS   MOCLDY    30  17  58 SE13      30.15S WCI  20
6HR MIN TEMP:  29; 6HR MAX TEMP:  34;

-EAGLE CREEK   MOCLDY    33  17  51 SE12      30.14S WCI  24
6HR MIN TEMP:  31; 6HR MAX TEMP:  36;

KOKOMO *+      MOCLDY    30  21  69 SE13      30.13F WCI  20
6HR MIN TEMP:  28; 6HR MAX TEMP:  32;

MARION +       MOCLDY    29  20  67 SE10      30.15F WCI  20
6HR MIN TEMP:  -2; 6HR MAX TEMP:  46;

MT COMFORT *+  PTCLDY    32  14  47 S8        30.16F WCI  25
SHELBYVILLE    PTCLDY    33  21  61 SE9       30.17F WCI  25
6HR MIN TEMP:  32; 6HR MAX TEMP:  37;

ZIONSVILLE +   MOCLDY    33  18  54 SE13      30.14F WCI  24
6HR MIN TEMP:  32; 6HR MAX TEMP:  36;


$$

INZ033-034-041-042-049-050-058-059-290100-
EAST CENTRAL INDIANA

CITY           SKY/WX    TMP DP  RH WIND       PRES   REMARKS
MUNCIE         PTCLDY    30  20  66 SE9       30.16F WCI  22
6HR MIN TEMP:  28; 6HR MAX TEMP:  31;


$$

INZ060-061-067>069-081>083-085>088-290100-
SOUTHWEST INDIANA

CITY           SKY/WX    TMP DP  RH WIND       PRES   REMARKS
EVANSVILLE     CLEAR     41  23  48 SE6       30.15F
6HR MIN TEMP:  37; 6HR MAX TEMP:  44;

HUNTINGBURG *+ CLEAR     36  19  51 SE10      30.17S
6HR MIN TEMP:  36; 6HR MAX TEMP:  43;

WASHINGTON +   CLEAR     35  20  55 SE10      30.14F WCI  27
6HR MIN TEMP:  33; 6HR MAX TEMP:  39;


$$

INZ062-063-066-070>080-084-089>092-290100-
SOUTH CENTRAL AND SOUTHEAST INDIANA

CITY           SKY/WX    TMP DP  RH WIND       PRES   REMARKS
BLOOMINGTON    PTCLDY    34  16  47 SE9       30.15S WCI  27
6HR MIN TEMP:  33; 6HR MAX TEMP:  38;


$$




USA.gov is the U.S. government's official web portal to all federal, state and local government web resources and services.